Wind_Speed
61 61 60 59 58 56 56 55 53 52 52 49 47 46 45 44 42 41 40 40 40 40 40 40 41 40 41 41 41 42 43 44 46 47 49 51 52 53
59 58 57 56 56 56 55 53 52 51 50 49 48 46 45 44 43 41 41 40 40 41 40 40 39 39 40 40 41 42 43 45 47 48 50 52 53 53
58 56 55 54 54 54 54 53 51 50 50 49 48 46 45 44 43 42 41 41 41 40 39 38 38 38 39 40 41 42 43 45 47 49 51 52 52 52
56 55 54 53 52 52 52 50 49 48 49 48 46 45 43 43 42 41 40 40 39 39 38 38 37 38 38 40 41 43 44 46 48 49 50 51 51 52
54 55 54 53 52 51 51 50 48 47 48 47 44 43 42 41 39 39 38 38 37 37 36 37 37 37 38 40 41 43 45 47 48 49 49 50 51 51
53 53 54 53 51 51 50 49 48 47 47 46 43 41 39 38 37 36 36 35 35 35 35 36 37 37 39 40 42 44 46 47 48 48 49 50 50 51
51 51 50 51 50 48 48 47 47 47 46 44 41 39 38 36 34 34 34 33 33 33 34 36 36 37 39 40 42 44 45 46 47 47 48 49 50 50
48 48 48 49 47 47 46 46 45 44 43 41 39 38 36 35 34 32 31 31 32 33 34 35 36 37 39 40 42 43 44 45 46 47 47 48 49 50
46 46 46 46 45 46 44 43 41 40 40 37 36 35 34 33 33 31 30 31 32 33 33 34 36 37 38 40 41 42 43 44 45 46 47 48 49 50
42 43 42 42 43 42 41 40 39 39 39 36 35 34 34 33 32 30 30 31 31 32 32 34 35 36 38 39 39 40 42 43 45 46 46 47 48 49
39 40 39 40 39 37 37 37 36 37 37 35 34 33 32 32 31 30 30 30 30 31 32 33 34 35 36 37 38 40 42 44 45 45 45 46 46 47
38 38 38 37 36 36 35 36 35 35 35 35 33 32 31 30 30 29 29 29 30 30 31 33 33 33 35 36 38 40 41 42 43 44 44 44 45 45
38 38 37 35 34 34 34 34 33 33 33 33 32 31 30 29 28 29 29 29 29 30 30 31 31 33 35 36 38 39 40 42 42 42 43 43 43 43
36 36 35 34 32 32 32 32 31 31 31 30 29 29 28 27 28 28 28 29 28 28 28 29 30 32 34 35 36 38 40 41 41 41 41 41 41 40
35 35 35 34 32 30 30 30 29 28 28 28 27 26 26 26 26 27 27 27 27 26 27 28 29 31 33 34 35 37 39 39 39 40 39 39 39 38
35 34 34 34 33 31 29 29 28 27 26 25 25 25 25 25 26 26 26 25 25 25 26 27 28 30 31 33 35 37 38 38 38 38 38 38 37 35
35 34 34 33 32 31 30 29 28 26 25 25 24 24 24 24 24 24 24 23 24 25 25 26 27 30 31 33 34 35 36 35 35 36 36 35 33 33
34 34 33 32 31 31 30 28 27 26 26 25 23 23 23 23 22 22 22 22 23 23 24 26 27 29 31 31 32 33 33 34 34 33 33 32 30 30
33 34 34 33 32 31 29 27 25 25 26 25 23 22 22 21 21 22 22 22 22 23 24 25 27 28 29 30 30 31 31 31 31 31 30 28 28 28
32 31 31 31 30 29 28 26 25 25 25 24 23 22 21 21 21 21 21 21 22 22 23 25 26 27 28 28 28 28 29 28 29 28 26 26 26 26
31 30 31 30 29 29 28 26 25 24 23 23 22 22 20 19 20 20 20 20 21 22 23 24 25 26 26 26 25 26 26 26 26 24 24 24 24 24
32 32 30 29 28 28 27 27 26 24 24 23 22 21 20 19 19 19 19 19 20 22 23 24 25 24 23 23 23 24 23 23 22 21 21 21 21 23
30 30 29 28 28 27 27 27 26 24 23 23 22 20 19 18 18 18 18 19 20 21 22 22 22 21 20 21 21 21 20 20 19 19 19 20 21 22
Wind_Direction
236 237 238 238 238 240 241 242 244 246 246 248 251 252 255 257 261 263 268 272 277 279 282 286 289 291 294 296 299 301 303 306 309 310 311 313 314 314
235 235 236 236 237 238 240 241 242 244 245 247 249 250 253 256 259 263 267 271 276 279 282 284 287 290 294 296 299 301 304 307 309 310 312 313 314 314
234 234 234 235 236 237 237 238 240 243 244 246 248 250 252 254 258 262 266 271 275 278 280 283 287 291 294 296 299 302 304 307 309 311 313 313 314 315
234 233 232 233 235 236 237 238 240 242 243 244 247 248 250 253 256 260 266 270 273 276 279 283 287 290 293 296 299 302 305 308 310 312 312 313 314 315
234 233 233 234 235 235 236 237 238 239 242 243 246 247 249 252 255 260 265 268 272 275 278 283 286 290 293 297 300 302 305 308 310 311 312 313 314 316
232 233 234 234 235 235 236 236 237 238 240 240 243 245 248 251 254 259 263 268 270 274 279 283 286 290 294 298 301 304 306 309 311 312 313 314 315 316
231 231 232 232 231 232 233 234 234 237 239 239 240 243 246 247 252 258 262 265 268 274 279 283 287 291 295 298 301 304 307 310 311 312 313 315 316 317
228 229 229 228 226 229 228 230 231 235 237 236 237 239 242 245 250 255 260 263 268 274 280 284 289 293 296 299 303 305 308 310 312 314 315 316 317 317
226 226 225 224 224 224 225 226 228 232 232 233 235 237 241 245 249 255 259 262 268 274 279 285 289 293 297 301 303 306 309 311 313 315 316 317 317 318
220 220 220 220 220 221 223 225 226 227 228 230 233 234 239 244 249 253 256 261 269 274 280 286 290 294 298 302 304 307 310 312 315 316 317 317 318 320
215 215 216 216 216 219 221 222 223 224 225 227 230 234 240 246 249 251 255 263 271 276 282 287 291 295 299 303 306 309 311 313 315 317 318 318 319 321
214 212 212 214 215 218 220 220 220 222 223 226 231 236 241 245 247 250 258 265 272 277 284 289 292 297 301 304 307 310 312 315 317 318 319 319 320 322
212 211 211 211 213 215 217 217 216 218 220 224 230 235 239 243 247 253 260 267 273 280 285 290 294 298 301 305 309 311 314 316 318 319 320 321 321 323
207 207 207 209 211 212 212 210 212 215 219 223 228 234 240 245 249 255 262 268 275 281 286 291 295 300 303 306 309 312 315 317 318 320 321 322 323 325
205 206 206 208 208 207 207 207 211 216 221 225 227 233 239 245 251 257 263 269 276 281 287 292 297 301 304 307 310 313 315 317 319 320 322 323 325 327
205 208 206 205 205 205 207 209 212 217 223 226 229 235 241 247 253 260 264 271 278 284 289 295 299 302 306 309 311 314 316 319 320 321 323 325 327 329
205 207 205 205 206 206 205 208 214 220 224 226 231 237 244 249 255 262 266 272 279 285 291 297 301 305 308 311 312 315 318 320 322 323 324 327 329 331
199 200 201 202 203 204 205 209 214 219 223 228 233 240 246 251 257 262 266 275 283 289 293 298 303 307 309 311 313 316 319 321 323 324 326 328 331 334
198 200 200 201 201 203 206 210 214 219 222 227 234 240 245 251 258 266 273 279 284 290 295 300 304 308 310 312 314 316 320 323 325 327 329 331 334 337
196 199 201 201 202 206 208 211 214 218 222 227 234 239 246 252 261 269 276 280 285 291 296 301 305 308 311 312 314 317 321 323 327 329 331 335 338 340
197 198 198 200 203 205 207 211 214 218 222 226 233 240 247 254 263 271 275 279 285 292 297 301 305 308 311 313 315 318 321 324 328 331 335 338 341 342
201 200 201 202 202 203 206 211 215 219 223 227 233 239 247 253 261 268 273 280 287 293 297 301 306 309 312 314 317 320 322 325 330 333 337 341 344 346
201 202 204 206 205 206 208 211 215 220 223 226 231 238 246 251 257 264 273 281 289 295 299 303 307 310 312 315 319 321 323 327 332 336 341 345 348 351
Height
5609 5617 5625 5632 5638 5645 5652 5658 5665 5670 5676 5681 5684 5688 5690 5692 5693 5694 5694 5694 5693 5692 5690 5687 5684 5681 5677 5672 5668 5663 5658 5652 5645 5638 5631 5624 5616 5607
5596 5603 5611 5619 5626 5632 5638 5646 5652 5657 5663 5669 5673 5676 5679 5681 5683 5684 5685 5684 5683 5682 5680 5678 5675 5672 5668 5664 5660 5655 5649 5643 5636 5629 5622 5614 5606 5597
5582 5590 5598 5606 5613 5620 5627 5633 5639 5645 5651 5657 5661 5664 5668 5670 5672 5674 5675 5675 5674 5673 5671 5669 5667 5663 5660 5656 5651 5646 5640 5634 5627 5620 5612 5604 5595 5587
5570 5578 5586 5594 5601 5608 5615 5622 5628 5634 5639 5644 5649 5653 5657 5660 5662 5663 5665 5665 5665 5664 5662 5661 5658 5655 5651 5647 5642 5637 5631 5625 5618 5610 5602 5594 5586 5576
5559 5567 5575 5582 5590 5597 5604 5610 5617 5623 5628 5633 5638 5643 5646 5648 5651 5653 5654 5655 5655 5654 5653 5652 5649 5646 5642 5638 5633 5628 5622 5615 5608 5600 5592 5584 5575 5566
5548 5556 5564 5571 5580 5587 5593 5600 5606 5613 5618 5623 5627 5632 5636 5638 5641 5643 5645 5646 5646 5646 5645 5643 5641 5637 5634 5629 5625 5619 5612 5605 5598 5590 5582 5574 5565 5556
5537 5546 5554 5562 5569 5576 5583 5590 5596 5602 5608 5613 5618 5622 5626 5629 5633 5635 5637 5637 5638 5637 5636 5635 5633 5629 5625 5620 5615 5609 5603 5596 5588 5581 5572 5564 5555 5547
5527 5535 5543 5551 5558 5565 5573 5580 5586 5593 5599 5604 5609 5614 5618 5622 5625 5627 5628 5629 5630 5631 5629 5627 5624 5620 5616 5611 5606 5600 5594 5587 5579 5571 5563 5554 5545 5537
5518 5526 5533 5541 5548 5556 5563 5570 5577 5584 5591 5597 5602 5607 5611 5614 5617 5619 5620 5622 5623 5622 5621 5618 5615 5611 5607 5603 5597 5591 5585 5578 5570 5562 5554 5545 5536 5527
5510 5518 5525 5533 5541 5548 5556 5562 5569 5576 5583 5589 5595 5600 5603 5606 5609 5611 5612 5614 5615 5614 5612 5610 5606 5603 5599 5594 5588 5583 5576 5569 5561 5553 5545 5536 5527 5517
5503 5511 5519 5527 5535 5542 5549 5557 5563 5570 5576 5582 5587 5591 5596 5599 5601 5603 5605 5607 5606 5605 5604 5602 5598 5594 5590 5585 5580 5574 5568 5560 5553 5545 5536 5527 5518 5509
5498 5506 5514 5522 5529 5537 5544 5551 5558 5564 5570 5575 5580 5585 5589 5592 5594 5597 5599 5599 5599 5597 5596 5593 5590 5586 5582 5577 5572 5566 5559 5552 5545 5537 5528 5520 5511 5502
5493 5502 5510 5517 5525 5532 5539 5546 5552 5559 5564 5570 5575 5579 5582 5585 5588 5590 5591 5592 5591 5590 5588 5586 5583 5579 5574 5570 5564 5558 5551 5544 5537 5529 5521 5512 5504 5496
5490 5498 5506 5514 5520 5527 5534 5541 5547 5553 5559 5564 5569 5574 5577 5580 5582 5584 5584 5584 5584 5583 5581 5578 5575 5572 5567 5562 5556 5550 5544 5537 5529 5522 5514 5505 5497 5489
5488 5495 5503 5510 5516 5523 5530 5537 5543 5549 5554 5559 5564 5568 5571 5574 5576 5577 5577 5577 5576 5575 5573 5571 5568 5564 5560 5555 5549 5543 5537 5530 5522 5515 5507 5499 5491 5484
5485 5492 5499 5506 5513 5520 5526 5532 5538 5545 5550 5555 5559 5562 5565 5567 5569 5570 5571 5571 5570 5568 5566 5563 5561 5557 5553 5548 5542 5536 5530 5523 5516 5508 5501 5493 5486 5478
5482 5489 5496 5502 5509 5515 5522 5529 5535 5540 5545 5549 5553 5556 5559 5561 5563 5564 5564 5564 5564 5562 5560 5557 5554 5550 5546 5541 5535 5530 5523 5517 5510 5503 5496 5488 5481 5474
5480 5486 5493 5499 5506 5512 5519 5525 5530 5535 5540 5545 5548 5551 5554 5556 5557 5558 5558 5558 5557 5556 5554 5551 5547 5543 5539 5534 5529 5523 5517 5511 5504 5498 5491 5484 5478 5471
5476 5483 5490 5497 5503 5509 5515 5521 5526 5531 5536 5540 5543 5546 5548 5550 5552 5552 5553 5552 5551 5549 5547 5544 5541 5537 5533 5528 5523 5518 5512 5506 5499 5493 5487 5481 5475 5468
5474 5481 5487 5493 5500 5506 5511 5517 5522 5526 5531 5535 5538 5541 5543 5545 5546 5547 5547 5546 5545 5543 5541 5538 5535 5531 5527 5523 5517 5512 5507 5501 5495 5490 5484 5478 5472 5466
5471 5478 5484 5490 5496 5501 5507 5512 5517 5522 5526 5529 5533 5536 5538 5539 5541 5541 5541 5541 5539 5538 5535 5533 5529 5526 5521 5517 5513 5508 5503 5498 5492 5487 5481 5476 5470 5465
5468 5474 5480 5486 5492 5497 5502 5508 5512 5517 5521 5524 5528 5530 5532 5534 5535 5535 5535 5535 5534 5532 5530 5527 5524 5520 5516 5513 5508 5504 5499 5495 5490 5485 5479 5475 5469 5464
5465 5471 5477 5482 5487 5492 5498 5503 5508 5512 5516 5520 5523 5525 5527 5529 5530 5530 5530 5530 5529 5527 5525 5522 5518 5515 5512 5508 5505 5500 5496 5492 5488 5483 5478 5473 5468 5463